Location: Detroit
(42.3310°N, 83.0460°W)
Time: 00:00:29
(UTC-04:00)

A-11 Canister half - Pass Details

Date: 16 February 2023
Orbit: 1526 x 1682 km, 47.3° (Epoch: 20 March)

Event Time Altitude Azimuth Distance (km) Brightness Sun altitude
Rises 01:01:55 0° 199° (SSW) 4,746 - -59.9°
Reaches altitude 10° 01:05:28 10° 189° (S) 3,743 - -59.8°
Maximum altitude 01:13:20 31° 132° (SE) 2,451 - -59.5°
Drops below altitude 10° 01:21:04 10° 75° (ENE) 3,697 - -59.1°
Exits shadow 01:22:13 - 71° (ENE) 4,013 11.4 -59.1°
Sets 01:24:31 0° 66° (ENE) 4,680 11.8 -58.9°
